GW0404 Weather Reports


time (UTC)temp
C
wind
direction
speed
KPH
gust
KPH
rain 1hr
cm
rain 24hr
cm
rain mn
cm
humidity
%
barometer
mb
20260503200907 21 224 0.0 0.0 0.00 0.00 0.00 48 1015.7
20260503200403 22 242 0.0 0.0 0.00 0.00 0.00 47 1015.7
20260503195900 21 250 0.0 0.0 0.00 0.00 0.00 45 1015.7
20260503195356 21 237 0.0 0.0 0.00 0.00 0.00 46 1015.7
20260503194853 21 232 0.0 0.0 0.00 0.00 0.00 43 1015.7
20260503194349 21 241 0.0 0.0 0.00 0.00 0.00 49 1016.0
20260503193846 21 248 0.0 0.0 0.00 0.00 0.00 46 1016.0
20260503193341 21 238 0.0 0.0 0.00 0.00 0.00 48 1016.0
20260503192837 21 245 0.0 0.0 0.00 0.00 0.00 46 1016.3
20260503192333 20 269 0.0 0.0 0.00 0.00 0.00 51 1016.3
20260503191830 21 248 0.0 0.0 0.00 0.00 0.00 46 1016.3
20260503191327 21 242 0.0 0.0 0.00 0.00 0.00 48 1016.3
20260503190823 21 245 0.0 0.0 0.00 0.00 0.00 43 1016.3
20260503190321 21 198 0.0 0.0 0.00 0.00 0.00 43 1016.3
20260503185817 21 151 0.0 0.0 0.00 0.00 0.00 44 1016.3
20260503185313 20 248 0.0 0.0 0.00 0.00 0.00 42 1016.7
20260503184808 21 242 0.0 0.0 0.00 0.00 0.00 45 1016.7
20260503184305 21 214 0.0 0.0 0.00 0.00 0.00 46 1016.3
20260503183800 21 269 0.0 0.0 0.00 0.00 0.00 44 1016.7
20260503183258 21 247 0.0 0.0 0.00 0.00 0.00 45 1016.7
20260503182755 21 201 0.0 0.0 0.00 0.00 0.00 47 1016.7
20260503182254 21 218 0.0 0.0 0.00 0.00 0.00 45 1017.0
20260503181750 21 251 0.0 0.0 0.00 0.00 0.00 46 1016.7
20260503181248 21 232 0.0 0.0 0.00 0.00 0.00 45 1016.7
20260503180744 20 248 0.0 0.0 0.00 0.00 0.00 47 1016.3
20260503180242 21 255 0.0 0.0 0.00 0.00 0.00 43 1016.7
20260503175738 21 238 0.0 0.0 0.00 0.00 0.00 48 1016.3
20260503175237 21 249 0.0 0.0 0.00 0.00 0.00 45 1016.7
20260503174732 20 265 0.0 0.0 0.00 0.00 0.00 52 1016.3
20260503174230 21 245 0.0 0.0 0.00 0.00 0.00 45 1016.3
20260503173725 20 262 0.0 0.0 0.00 0.00 0.00 48 1016.3
20260503173221 20 252 0.0 0.0 0.00 0.00 0.00 46 1016.7
20260503172718 21 250 0.0 0.0 0.00 0.00 0.00 49 1016.3
20260503172215 21 250 0.0 0.0 0.00 0.00 0.00 47 1016.7
20260503171711 21 245 0.0 0.0 0.00 0.00 0.00 50 1016.7
20260503171209 20 247 0.0 0.0 0.00 0.00 0.00 47 1016.7
20260503170706 20 257 0.0 0.0 0.00 0.00 0.00 55 1016.7
20260503170203 20 244 0.0 0.0 0.00 0.00 0.00 49 1016.7
20260503160124 18 247 0.0 0.0 0.00 0.00 0.00 52 1017.0
20260503150554 17 240 0.0 0.0 0.00 0.00 0.00 59 1017.4
20260503130944 15 237 0.0 0.0 0.00 0.00 0.00 87 1016.7
20260503130442 15 248 0.0 0.0 0.00 0.00 0.00 91 1016.7
20260503110332 8 243 0.0 0.0 0.00 0.00 0.00 96 1015.0
20260503100258 5 239 0.0 0.0 0.00 0.00 0.00 95 1014.3
20260503090218 6 239 0.0 0.0 0.00 0.00 0.00 95 1014.0
20260503081145 6 239 0.0 0.0 0.00 0.00 0.00 95 1013.6
20260503080641 6 239 0.0 0.0 0.00 0.00 0.00 95 1013.6
20260503080138 6 239 0.0 0.0 0.00 0.00 0.00 95 1013.6
20260503072615 6 239 0.0 0.0 0.00 0.00 0.00 95 1013.0
20260503072112 7 239 0.0 0.0 0.00 0.00 0.00 95 1013.3
20260503071608 7 239 0.0 0.0 0.00 0.00 0.00 95 1013.3
20260503071105 7 239 0.0 0.0 0.00 0.00 0.00 95 1013.3
20260503070602 7 239 0.0 0.0 0.00 0.00 0.00 95 1013.3
20260503055020 8 239 0.0 0.0 0.00 0.00 0.00 95 1013.0
20260503054516 8 239 0.0 0.0 0.00 0.00 0.00 95 1013.0
20260503054014 8 239 0.0 0.0 0.00 0.00 0.00 95 1013.0
20260503053512 8 239 0.0 0.0 0.00 0.00 0.00 95 1013.0
20260503053009 8 239 0.0 0.0 0.00 0.00 0.00 95 1013.0
20260503052506 8 239 0.0 0.0 0.00 0.00 0.00 95 1013.0
20260503052002 8 239 0.0 0.0 0.00 0.00 0.00 95 1013.0
20260503051458 9 239 0.0 0.0 0.00 0.00 0.00 95 1013.0
20260503050956 9 239 0.0 0.0 0.00 0.00 0.00 95 1012.6
20260503050451 9 239 0.0 0.0 0.00 0.00 0.00 95 1012.6
20260503045949 9 239 0.0 0.0 0.00 0.00 0.00 95 1012.6
20260503045446 9 239 0.0 0.0 0.00 0.00 0.00 95 1013.0
20260503044943 9 239 0.0 0.0 0.00 0.00 0.00 95 1012.6
20260503044440 9 239 0.0 0.0 0.00 0.00 0.00 95 1013.0
20260503043937 10 239 0.0 0.0 0.00 0.00 0.00 95 1012.6
20260503043433 10 239 0.0 0.0 0.00 0.00 0.00 95 1012.6
20260503042930 9 239 0.0 0.0 0.00 0.00 0.00 95 1012.6
20260503042427 10 239 0.0 0.0 0.00 0.00 0.00 95 1012.6
20260503041924 10 239 0.0 0.0 0.00 0.00 0.00 95 1012.6
20260503041420 10 239 0.0 0.0 0.00 0.00 0.00 95 1012.3
20260503040918 10 239 0.0 0.0 0.00 0.00 0.00 95 1012.3
20260503040415 10 239 0.0 0.0 0.00 0.00 0.00 95 1012.3
20260503035912 10 239 0.0 0.0 0.00 0.00 0.00 95 1012.3
20260503035409 10 239 0.0 0.0 0.00 0.00 0.00 95 1012.6
20260503034906 10 239 0.0 0.0 0.00 0.00 0.00 95 1012.6
20260503034404 10 239 0.0 0.0 0.00 0.00 0.00 95 1011.9
20260503033901 10 239 0.0 0.0 0.00 0.00 0.00 95 1011.9
20260503033358 10 239 0.0 0.0 0.00 0.00 0.00 95 1011.9
20260503032856 10 239 0.0 0.0 0.00 0.00 0.00 95 1011.9
20260503032355 10 239 0.0 0.0 0.00 0.00 0.00 95 1011.9
20260503031852 10 239 0.0 0.0 0.00 0.00 0.00 95 1011.9
20260503031349 10 239 0.0 0.0 0.00 0.00 0.00 95 1011.9
20260503030845 10 239 0.0 0.0 0.00 0.00 0.00 95 1011.6
20260503030342 10 239 0.0 0.0 0.00 0.00 0.00 95 1011.3
20260503025838 11 239 0.0 0.0 0.00 0.00 0.00 95 1011.3
20260503025336 11 239 0.0 0.0 0.00 0.00 0.00 95 1010.9
20260503024833 11 239 0.0 0.0 0.00 0.00 0.00 95 1011.3
20260503024330 11 243 0.0 0.0 0.00 0.00 0.00 95 1010.9
20260503023826 11 244 0.0 0.0 0.00 0.00 0.00 95 1011.3
20260503023324 11 234 0.0 0.0 0.00 0.00 0.00 95 1010.9
20260503022821 11 240 0.0 0.0 0.00 0.00 0.00 95 1010.9
20260503022320 11 238 0.0 0.0 0.00 0.00 0.00 95 1010.9
20260503021817 11 238 0.0 0.0 0.00 0.00 0.00 95 1011.3
20260503021313 11 240 0.0 0.0 0.00 0.00 0.00 95 1010.9
20260503020811 11 239 0.0 0.0 0.00 0.00 0.00 95 1010.9
20260503020309 12 232 0.0 0.0 0.00 0.00 0.00 95 1010.9
20260503015805 12 238 0.0 0.0 0.00 0.00 0.00 95 1010.9
20260503015305 12 241 0.0 0.0 0.00 0.00 0.00 95 1010.6
20260503014757 12 243 0.0 0.0 0.00 0.00 0.00 95 1010.6
20260503014255 12 242 0.0 0.0 0.00 0.00 0.00 95 1010.6
20260503013753 12 237 0.0 0.0 0.00 0.00 0.00 95 1010.6
20260503013250 12 239 0.0 0.0 0.00 0.00 0.00 95 1010.6
20260503012747 12 239 0.0 0.0 0.00 0.00 0.00 95 1010.2
20260503012244 12 239 0.0 0.0 0.00 0.00 0.00 95 1010.2
20260503011741 12 239 0.0 0.0 0.00 0.00 0.00 95 1010.2
20260503011238 12 239 0.0 0.0 0.00 0.00 0.00 95 1010.2
20260503010734 12 239 0.0 0.0 0.00 0.00 0.00 95 1009.9
20260503010231 12 240 0.0 0.0 0.00 0.00 0.00 95 1010.2
20260503005728 12 240 0.0 0.0 0.00 0.00 0.00 95 1009.9
20260503005226 12 240 0.0 0.0 0.00 0.00 0.00 95 1009.9
20260503004722 12 240 0.0 0.0 0.00 0.00 0.00 94 1009.9
20260503004220 12 245 0.0 0.0 0.00 0.00 0.00 94 1009.9
20260503003717 12 246 0.0 0.0 0.00 0.00 0.00 94 1009.9
20260503003214 12 241 0.0 0.0 0.00 0.00 0.00 94 1009.9
20260503002711 12 243 0.0 0.0 0.00 0.00 0.00 94 1009.9
20260503002208 12 230 0.0 0.0 0.00 0.00 0.00 94 1009.9
20260503001703 12 231 0.0 0.0 0.00 0.00 0.00 94 1009.6
20260503001200 12 233 0.0 0.0 0.00 0.00 0.00 94 1009.6
20260503000658 12 248 0.0 0.0 0.00 0.00 0.00 94 1009.6
20260503000155 12 238 0.0 0.0 0.00 0.00 0.00 94 1009.6
20260502235652 12 229 0.0 0.0 0.00 0.00 0.00 94 1009.2
20260502235150 12 237 0.0 0.0 0.00 0.00 0.00 94 1009.2
20260502234646 12 233 0.0 0.0 0.00 0.00 0.00 94 1009.2
20260502234143 12 234 0.0 0.0 0.00 0.00 0.00 94 1008.9
20260502233639 12 208 0.0 0.0 0.00 0.00 0.00 94 1009.2
20260502233136 12 226 0.0 0.0 0.00 0.00 0.00 94 1008.9
20260502232632 12 255 0.0 0.0 0.00 0.00 0.00 94 1008.9
20260502232130 12 249 0.0 0.0 0.00 0.00 0.00 94 1008.9
20260502231626 12 246 0.0 0.0 0.00 0.00 0.00 94 1008.9
20260502231124 12 249 0.0 0.0 0.00 0.00 0.00 94 1008.9
20260502230622 12 250 0.0 0.0 0.00 0.00 0.00 94 1008.9
20260502230120 12 255 0.0 0.0 0.00 0.00 0.00 94 1008.9
20260502225615 12 252 0.0 0.0 0.00 0.00 0.00 94 1008.9
20260502225113 12 244 0.0 0.0 0.00 0.00 0.00 94 1008.6
20260502224609 13 243 0.0 0.0 0.00 0.00 0.00 94 1008.9
20260502224106 12 245 0.0 0.0 0.00 0.00 0.00 94 1008.9
20260502223604 12 245 0.0 0.0 0.00 0.00 0.00 94 1008.6
20260502223102 13 252 0.0 0.0 0.00 0.00 0.00 94 1008.6
20260502222559 13 244 0.0 0.0 0.00 0.00 0.00 94 1008.6
20260502222055 12 237 0.0 0.0 0.00 0.00 0.00 94 1008.6
20260502221551 13 249 0.0 0.0 0.00 0.00 0.00 94 1008.9
20260502221048 13 255 0.0 0.0 0.00 0.00 0.00 94 1008.6
20260502220544 13 127 0.0 0.0 0.00 0.00 0.00 94 1008.6
20260502220041 13 252 0.0 0.0 0.00 0.00 0.00 94 1008.6
20260502215538 13 249 0.0 0.0 0.00 0.00 0.00 94 1008.6
20260502215035 13 250 0.0 0.0 0.00 0.00 0.00 94 1008.6
20260502214532 13 90 0.0 0.0 0.00 0.00 0.00 94 1008.6
20260502214029 13 166 0.0 0.0 0.00 0.00 0.00 94 1008.2
20260502213526 13 197 0.0 0.0 0.00 0.00 0.00 94 1008.6
20260502213024 13 229 0.0 0.0 0.00 0.00 0.00 94 1008.6
20260502212523 13 250 0.0 0.0 0.00 0.00 0.00 94 1008.2
20260502212020 13 237 0.0 0.0 0.00 0.00 0.00 94 1008.6
20260502211515 13 251 0.0 0.0 0.00 0.00 0.00 94 1008.2
20260502211013 13 251 0.0 0.0 0.00 0.00 0.00 94 1008.2
20260502210509 13 252 0.0 0.0 0.00 0.00 0.00 94 1008.2
20260502210007 13 248 0.0 0.0 0.00 0.00 0.00 94 1008.2
20260502205503 13 250 0.0 0.0 0.00 0.00 0.00 94 1007.9
20260502205000 13 251 0.0 0.0 0.00 0.00 0.00 94 1007.9
20260502204457 13 225 0.0 0.0 0.00 0.00 0.00 94 1007.5
20260502203955 13 249 0.0 0.0 0.00 0.00 0.00 94 1007.5
20260502203451 13 248 0.0 0.0 0.00 0.00 0.00 94 1007.5
20260502202948 13 260 0.0 0.0 0.00 0.00 0.00 94 1007.5
20260502202445 13 252 0.0 0.0 0.00 0.00 0.00 94 1007.5
20260502201943 13 245 0.0 0.0 0.00 0.00 0.00 94 1007.5
20260502201438 13 242 0.0 0.0 0.00 0.00 0.00 94 1007.9